Location: Brad
(46.1333°N, 22.7833°E)
Time: 10:51:05
(UTC+00:00)

CZ-4B R/B - Pass Details

Date: 03 February 2023
Orbit: 808 x 881 km, 99.0° (Epoch: 01 April)

Event Time Altitude Azimuth Distance (km) Brightness Sun altitude
Rises 16:07:48 0° 126° (SE) 3,341 5.9 -5.9°
Reaches altitude 10° 16:10:30 10° 113° (ESE) 2,422 5.1 -6.4°
Maximum altitude 16:14:44 25° 60° (ENE) 1,644 4.2 -7.1°
Drops below altitude 10° 16:19:03 10° 8° (N) 2,470 5.4 -7.8°
Sets 16:21:49 0° 356° (N) 3,423 6.3 -8.3°
